Weather History for Fayetteville, AR

Change the Weather History Date:

Tuesday, November 13, 2012

  Actual Average Record
Temperature  
Mean Temperature 38 °F 49 °F  
Max Temperature 55 °F 60 °F 81 °F (1955)
Min Temperature 21 °F 37 °F 10 °F (1986)
Degree Days  
Heating Degree Days 27 16  
Month to date heating degree days 184  
Since 1 July heating degree days 484  
Moisture  
Dew Point 25 °F    
Average Humidity 67    
Maximum Humidity 92    
Minimum Humidity 28    
Precipitation  
Precipitation 0.00 in 0.15 in 0.71 in (1997)
Month to date precipitation 1.88  
Year to date precipitation 42.92  
Sea Level Pressure  
Sea Level Pressure 30.47 in    
Wind  
Wind Speed 1 mph (South)    
Max Wind Speed 4 mph    
Max Gust Speed -    
Visibility 10 miles    
Events      
T = Trace of Precipitation, MM = Missing Value Source: NWS Daily Summary

Daily Weather History Graph

Daily Weather History Graph

Search for Another Location

Airport:

Trip Planner

Search our weather history database for the weather conditions in past years. The results will help you decide how hot, cold, wet, or windy it might be!

Date:

Astronomy

Nov. 13, 2012 Rise Set
Actual Time 6:51 AM CST 5:10 PM CST
Civil Twilight 6:24 AM CST 5:37 PM CST
Nautical Twilight 5:53 AM CST 6:08 PM CST
Astronomical Twilight 5:23 AM CST 6:38 PM CST
Moon 6:30 AM CST (11/13) 5:04 PM CST (11/13)
Length of Visible Light 11h 12m
Length of Day
10h 18m
Waning Crescent, 0% of the Moon is Illuminated
Nov 13
Waning Crescent
Nov 13
New
Nov 20
First Quarter
Nov 28
Full
Dec 6
Last Quarter

Hourly Weather History & Observations

Time (CST) Temp. Windchill Dew Point Humidity Pressure Visibility Wind Dir Wind Speed Gust Speed Precip Events Conditions
12:53 AM 26.1 °F - 24.1 °F 92% 30.52 in 10.0 mi Calm Calm - N/A   Clear
1:53 AM 25.0 °F - 23.0 °F 92% 30.51 in 10.0 mi Calm Calm - N/A   Clear
2:53 AM 25.0 °F 20.7 °F 23.0 °F 92% 30.51 in 10.0 mi South 3.5 mph - N/A   Clear
3:53 AM 24.1 °F - 21.9 °F 91% 30.51 in 10.0 mi Calm Calm - N/A   Clear
4:53 AM 24.1 °F - 21.9 °F 91% 30.51 in 10.0 mi Calm Calm - N/A   Clear
5:53 AM 24.1 °F - 21.0 °F 88% 30.52 in 10.0 mi Calm Calm - N/A   Clear
6:53 AM 21.9 °F - 19.9 °F 92% 30.54 in 10.0 mi Calm Calm - N/A   Clear
7:53 AM 26.1 °F - 24.1 °F 92% 30.55 in 10.0 mi Calm Calm - N/A   Clear
8:53 AM 32.0 °F - 28.0 °F 85% 30.55 in 10.0 mi Calm Calm - N/A   Clear
9:53 AM 41.0 °F - 30.9 °F 67% 30.55 in 10.0 mi Calm Calm - N/A   Clear
10:53 AM 50.0 °F - 21.9 °F 33% 30.51 in 10.0 mi Calm Calm - N/A   Clear
11:53 AM 51.1 °F - 23.0 °F 33% 30.48 in 10.0 mi Variable 3.5 mph - N/A   Clear
12:53 PM 53.1 °F - 21.0 °F 29% 30.44 in 10.0 mi Calm Calm - N/A   Clear
1:53 PM 55.0 °F - 23.0 °F 29% 30.41 in 10.0 mi North 3.5 mph - N/A   Clear
2:53 PM 55.0 °F - 21.9 °F 28% 30.39 in 10.0 mi Calm Calm - N/A   Clear
3:53 PM 54.0 °F - 21.0 °F 28% 30.38 in 10.0 mi North 3.5 mph - N/A   Clear
4:53 PM 51.1 °F - 21.9 °F 32% 30.37 in 10.0 mi Calm Calm - N/A   Clear
5:53 PM 46.0 °F - 25.0 °F 44% 30.39 in 10.0 mi Calm Calm - N/A   Clear
6:53 PM 37.9 °F - 28.0 °F 68% 30.42 in 10.0 mi Calm Calm - N/A   Clear
7:53 PM 37.0 °F - 28.9 °F 73% 30.44 in 10.0 mi Calm Calm - N/A   Clear
8:53 PM 37.0 °F - 28.9 °F 73% 30.45 in 10.0 mi Calm Calm - N/A   Clear
9:53 PM 36.0 °F - 30.0 °F 79% 30.43 in 10.0 mi Calm Calm - N/A   Clear
10:53 PM 35.1 °F - 30.0 °F 82% 30.43 in 10.0 mi Calm Calm - N/A   Clear
11:53 PM 33.1 °F - 30.0 °F 89% 30.42 in 10.0 mi Calm Calm - N/A   Clear